Weather History for KUIL - October, 2011

Change the Weather History Date:

Monday, October 10, 2011

  Actual Average Record
Temperature  
Mean Temperature 53 °F 51 °F  
Max Temperature 58 °F 60 °F 79 °F (1991)
Min Temperature 48 °F 42 °F 31 °F (1983)
Degree Days  
Heating Degree Days 12 14  
Month to date heating degree days 128  
Since 1 July heating degree days 753  
Cooling Degree Days 0 0  
Month to date cooling degree days 0  
Year to date cooling degree days 19  
Growing Degree Days 2 (Base 50)    
Moisture  
Dew Point 52 °F    
Average Humidity 93    
Maximum Humidity 100    
Minimum Humidity 82    
Precipitation  
Precipitation 0.60 in 0.29 in 1.33 in (1967)
Month to date precipitation 2.52  
Year to date precipitation 63.06  
Sea Level Pressure  
Sea Level Pressure 29.52 in    
Wind  
Wind Speed 7 mph (South)    
Max Wind Speed 17 mph    
Max Gust Speed 26 mph    
Visibility 8 miles    
Events Rain    
T = Trace of Precipitation, MM = Missing Value Source: NWS Daily Summary

Daily Weather History Graph

Daily Weather History Graph

Search for Another Location

Airport or City:

Trip Planner

Search our weather history database for the weather conditions in past years. The results will help you decide how hot, cold, wet, or windy it might be!

Date:

Astronomy

Oct. 10, 2011 Rise Set
Actual Time 7:29 AM PDT 6:39 PM PDT
Civil Twilight 6:58 AM PDT 7:10 PM PDT
Nautical Twilight 6:23 AM PDT 7:46 PM PDT
Astronomical Twilight 5:46 AM PDT 8:22 PM PDT
Moon 5:45 PM PDT (10/10) 6:15 AM PDT (10/10)
Length of Visible Light 12h 11m
Length of Day
11h 09m
Waxing Gibbous, 98% of the Moon is Illuminated
Oct 10
Waxing Gibbous
Oct 11
Full
Oct 19
Last Quarter
Oct 26
New
Nov 2
First Quarter

Hourly Weather History & Observations

Time (PDT) Temp. Dew Point Humidity Pressure Visibility Wind Dir Wind Speed Gust Speed Precip Events Conditions
12:06 AM 48.2 °F 46.4 °F 93% 29.75 in 10.0 mi East 4.6 mph - N/A   Mostly Cloudy
12:53 AM 48.0 °F 46.0 °F 93% 29.74 in 10.0 mi East 3.5 mph - N/A   Mostly Cloudy
1:46 AM 48.2 °F 46.4 °F 93% 29.71 in 10.0 mi ENE 4.6 mph - N/A   Overcast
1:53 AM 48.9 °F 46.0 °F 90% 29.70 in 10.0 mi ENE 5.8 mph - N/A   Overcast
2:23 AM 48.2 °F 46.4 °F 93% 29.68 in 10.0 mi ENE 6.9 mph - N/A   Overcast
2:45 AM 48.2 °F 46.4 °F 93% 29.68 in 10.0 mi East 5.8 mph - N/A   Mostly Cloudy
2:53 AM 48.9 °F 46.9 °F 93% 29.68 in 10.0 mi ENE 3.5 mph - N/A   Overcast
3:53 AM 48.9 °F 46.9 °F 93% 29.65 in 10.0 mi Calm Calm - 0.00 in   Overcast
4:53 AM 51.1 °F 48.0 °F 89% 29.63 in 10.0 mi Calm Calm - 0.00 in Rain Light Rain
5:44 AM 53.6 °F 48.2 °F 82% 29.60 in 10.0 mi SSE 6.9 mph 17.3 mph 0.00 in Rain Light Rain
5:53 AM 53.1 °F 50.0 °F 89% 29.59 in 6.0 mi SE 8.1 mph 17.3 mph 0.01 in Rain Light Rain
6:53 AM 51.1 °F 48.9 °F 92% 29.56 in 10.0 mi SE 6.9 mph - 0.04 in Rain Light Rain
7:00 AM - - N/A% - - North - - N/A   Unknown
7:32 AM 51.8 °F 48.2 °F 88% 29.54 in 7.0 mi ESE 5.8 mph - 0.03 in Rain Light Rain
7:53 AM 51.1 °F 48.0 °F 89% 29.53 in 10.0 mi SE 5.8 mph - 0.03 in Rain Light Rain
8:43 AM 50.0 °F 46.4 °F 87% 29.51 in 8.0 mi ESE 4.6 mph - 0.01 in Rain Light Rain
8:53 AM 50.0 °F 48.0 °F 93% 29.50 in 10.0 mi East 6.9 mph - 0.01 in Rain Light Rain
9:36 AM 50.0 °F 48.2 °F 94% 29.47 in 10.0 mi East 5.8 mph - 0.00 in   Overcast
9:53 AM 51.1 °F 48.9 °F 92% 29.47 in 3.0 mi East 4.6 mph - 0.01 in Rain Rain
10:26 AM 51.8 °F 48.2 °F 88% 29.46 in 7.0 mi East 5.8 mph - 0.01 in   Overcast
10:53 AM 52.0 °F 50.0 °F 93% 29.45 in 10.0 mi East 3.5 mph - 0.01 in   Overcast
11:53 AM 55.0 °F 52.0 °F 89% 29.45 in 8.0 mi South 9.2 mph 17.3 mph 0.01 in   Overcast
12:53 PM 57.0 °F 54.0 °F 89% 29.46 in 10.0 mi Variable 6.9 mph 21.9 mph 0.01 in   Overcast
1:08 PM 57.2 °F 53.6 °F 88% 29.47 in 10.0 mi WSW 11.5 mph 20.7 mph N/A   Overcast
1:36 PM 57.2 °F 53.6 °F 88% 29.47 in 10.0 mi South 9.2 mph 18.4 mph N/A   Overcast
1:53 PM 57.0 °F 54.0 °F 89% 29.47 in 7.0 mi South 10.4 mph 16.1 mph 0.00 in Rain Light Rain
2:02 PM 55.4 °F 53.6 °F 94% 29.47 in 1.8 mi South 10.4 mph 20.7 mph 0.02 in Rain Rain
2:26 PM 55.4 °F 53.6 °F 94% 29.48 in 2.5 mi SSW 9.2 mph 24.2 mph 0.11 in Rain Light Rain
2:31 PM 53.6 °F 53.6 °F 100% 29.48 in 4.0 mi SSW 11.5 mph 19.6 mph 0.11 in Rain Light Rain
2:46 PM 53.6 °F 53.6 °F 100% 29.48 in 3.0 mi SSW 9.2 mph - 0.12 in Rain Light Rain
2:53 PM 54.0 °F 53.1 °F 97% 29.49 in 4.0 mi SSW 9.2 mph - 0.13 in Rain Light Rain
3:05 PM 53.6 °F 53.6 °F 100% 29.49 in 10.0 mi South 6.9 mph - 0.00 in   Overcast
3:20 PM 55.4 °F 53.6 °F 94% 29.49 in 10.0 mi SSW 6.9 mph - 0.00 in Rain Light Rain
3:53 PM 55.9 °F 54.0 °F 93% 29.50 in 10.0 mi South 9.2 mph - 0.00 in   Overcast
4:14 PM 55.4 °F 53.6 °F 94% 29.51 in 10.0 mi SSW 9.2 mph - N/A   Overcast
4:29 PM 55.4 °F 53.6 °F 94% 29.51 in 10.0 mi SSW 6.9 mph - N/A   Overcast
4:37 PM 55.4 °F 53.6 °F 94% 29.51 in 10.0 mi SSW 5.8 mph - N/A   Overcast
4:53 PM 55.9 °F 54.0 °F 93% 29.51 in 10.0 mi SSW 6.9 mph - N/A   Overcast
5:36 PM 55.4 °F 53.6 °F 94% 29.50 in 10.0 mi South 8.1 mph - 0.03 in   Overcast
5:53 PM 55.0 °F 54.0 °F 96% 29.51 in 10.0 mi South 5.8 mph - 0.03 in   Overcast
6:20 PM 55.4 °F 53.6 °F 94% 29.50 in 5.0 mi South 6.9 mph - 0.00 in Rain Light Rain
6:40 PM 55.4 °F 53.6 °F 94% 29.51 in 6.0 mi South 10.4 mph 17.3 mph 0.02 in Rain Light Rain
6:53 PM 55.9 °F 54.0 °F 93% 29.51 in 10.0 mi SSW 10.4 mph 23.0 mph 0.02 in   Overcast
7:01 PM 55.4 °F 53.6 °F 94% 29.51 in 10.0 mi South 10.4 mph - N/A   Overcast
7:28 PM 55.4 °F 55.4 °F 100% 29.51 in 9.0 mi SSW 9.2 mph - 0.00 in Rain Light Rain
7:32 PM 55.4 °F 55.4 °F 100% 29.51 in 9.0 mi South 9.2 mph - 0.00 in Rain Light Rain
7:53 PM 55.0 °F 55.0 °F 100% 29.51 in 10.0 mi South 10.4 mph 21.9 mph 0.00 in   Overcast
8:26 PM 55.4 °F 53.6 °F 94% 29.50 in 8.0 mi South 10.4 mph - 0.00 in Rain Light Rain
8:32 PM 55.4 °F 53.6 °F 94% 29.50 in 2.5 mi South 12.7 mph 20.7 mph 0.02 in Rain Heavy Rain
8:39 PM 55.4 °F 53.6 °F 94% 29.50 in 1.8 mi South 10.4 mph 19.6 mph 0.12 in Rain Heavy Rain
8:43 PM 55.4 °F 53.6 °F 94% 29.50 in 3.0 mi South 11.5 mph 18.4 mph 0.12 in Rain Light Rain
8:50 PM 55.4 °F 53.6 °F 94% 29.50 in 7.0 mi SSW 10.4 mph 23.0 mph 0.13 in Rain Light Rain
8:53 PM 55.0 °F 54.0 °F 96% 29.50 in 7.0 mi SSW 8.1 mph 23.0 mph 0.13 in Rain Light Rain
9:07 PM 55.4 °F 53.6 °F 94% 29.50 in 7.0 mi SSW 11.5 mph 18.4 mph 0.01 in Rain Light Rain
9:53 PM 55.0 °F 54.0 °F 96% 29.49 in 9.0 mi SSW 6.9 mph 17.3 mph 0.02 in   Overcast
10:04 PM 55.4 °F 53.6 °F 94% 29.50 in 10.0 mi South 10.4 mph 17.3 mph N/A   Overcast
10:07 PM 55.4 °F 53.6 °F 94% 29.49 in 10.0 mi South 12.7 mph 24.2 mph N/A   Overcast
10:16 PM 55.4 °F 53.6 °F 94% 29.49 in 10.0 mi South 6.9 mph 24.2 mph N/A   Overcast
10:53 PM 55.9 °F 54.0 °F 93% 29.47 in 10.0 mi SSE 10.4 mph 19.6 mph 0.00 in Rain Light Rain
11:11 PM 55.4 °F 53.6 °F 94% 29.47 in 10.0 mi Variable 6.9 mph - 0.00 in Rain Light Rain
11:29 PM 55.4 °F 53.6 °F 94% 29.47 in 2.0 mi SSW 15.0 mph 24.2 mph 0.10 in Rain Heavy Rain
11:32 PM 55.4 °F 53.6 °F 94% 29.47 in 2.0 mi SSW 15.0 mph 24.2 mph 0.12 in Rain Rain
11:40 PM 55.4 °F 53.6 °F 94% 29.47 in 10.0 mi SW 11.5 mph 20.7 mph 0.12 in Rain Light Rain
11:53 PM 55.0 °F 54.0 °F 96% 29.47 in 10.0 mi SSW 12.7 mph 19.6 mph 0.12 in   Overcast